This is the latest recevied weather packets stored in our database for station/object DO1SC. If no packets are shown the sender has not sent any weather packets the latest 10 day(s).
| Time | Temp. | Humidity | Pressure | Rain* | Wind** | Luminosity | Snow |
|---|---|---|---|---|---|---|---|
| 1777302325 | 14.44° C | 34% | 1021.8 hPa | - | - | 303 W/m² | - |
| 1777301717 | 14.44° C | 35% | 1021.9 hPa | - | - | 297 W/m² | - |
| 1777301128 | 14.44° C | 34% | 1022 hPa | - | - | 230 W/m² | - |
| 1777300520 | 14.44° C | 35% | 1022 hPa | - | - | 306 W/m² | - |
| 1777299935 | 13.89° C | 34% | 1022.1 hPa | - | - | 342 W/m² | - |
| 1777299323 | 13.89° C | 36% | 1022.3 hPa | - | - | 353 W/m² | - |
| 1777298735 | 13.89° C | 35% | 1022.3 hPa | - | - | 349 W/m² | - |
| 1777298127 | 13.89° C | 35% | 1022.3 hPa | - | - | 335 W/m² | - |
| 1777297521 | 13.89° C | 37% | 1022.5 hPa | - | - | 348 W/m² | - |
| 1777296930 | 13.89° C | 37% | 1022.5 hPa | - | - | 380 W/m² | - |
| 1777296324 | 13.89° C | 35% | 1022.6 hPa | - | - | 364 W/m² | - |
| 1777295733 | 13.33° C | 36% | 1022.6 hPa | - | - | 405 W/m² | - |
| 1777295127 | 13.89° C | 36% | 1022.7 hPa | - | - | 464 W/m² | - |
| 1777294535 | 13.89° C | 37% | 1022.7 hPa | - | - | 458 W/m² | - |
| 1777293929 | 13.89° C | 36% | 1022.7 hPa | - | - | 482 W/m² | - |
| 1777293318 | 13.89° C | 36% | 1022.7 hPa | - | - | 351 W/m² | - |
| 1777292732 | 13.89° C | 35% | 1022.7 hPa | - | - | 478 W/m² | - |
| 1777292121 | 14.44° C | 35% | 1022.9 hPa | - | - | 633 W/m² | - |
| 1777291533 | 13.89° C | 36% | 1022.9 hPa | - | - | 534 W/m² | - |
| 1777290924 | 13.89° C | 35% | 1023.1 hPa | - | - | 568 W/m² | - |
| 1777290336 | 13.89° C | 34% | 1023 hPa | - | - | 622 W/m² | - |
| 1777289727 | 13.33° C | 36% | 1023.2 hPa | - | - | 648 W/m² | - |
| 1777289119 | 13.33° C | 36% | 1023.3 hPa | - | - | 616 W/m² | - |
| 1777288533 | 13.33° C | 36% | 1023.3 hPa | - | - | 601 W/m² | - |
| 1777287922 | 13.33° C | 36% | 1023.4 hPa | - | - | 623 W/m² | - |
* Rain since midnight (hover to see other rain measurements)
** Current wind speed in m/s (hover to see current wind gust speed)